sat.trackr.live / text

‹ back to catalog

ASNARO

NORAD 40298 · 2014-070A

PAYLOAD ACTIVE UNKNOWN

§ Identity

Operator
Country
JPN
Launch date
2014-11-06
Launch site
DLS
Launch vehicle
Mass (kg)
RCS (m²)
2.65

Purposes: earth_obs

External: N2YO · Heavens-Above · Gunter

§ Orbital elements

Epoch: 2026-09-10T04:06:00.512064Z

Period
94.76 min
Inclination
97.3396°
Eccentricity
0.0003697
Mean motion
15.19635862 rev/d
Perigee alt
504.4 km
Apogee alt
509.5 km
Semi-major
6,885.1 km
B*
2.4775e-4
RAAN
326.9678°
Arg perigee
201.7563°
Mean anomaly
158.3515°
Rev number
65,691

§ Raw data

ASNARO1 40298U 14070A   26253.17083926  .00005214  00000+0  24775-3 0  99982 40298  97.3396 326.9678 0003697 201.7563 158.3515 15.19635862656913

JSON: /api/v1/satellites/40298 · /tle

For live sub-satellite position, see the globe view (requires WebGL).

§ Visibility from observer

Set your observer location to see the next 7 days of passes ≥ 10°. The values pass through the URL so the page stays shareable.

No JS? Fill the form by hand. The geolocation button needs JavaScript.

§ Radio — SatNOGS DB

ModeDescriptionDownlinkUplink
BPSK S-band telemetry 2.272 GHz

1 transmitter · refreshed weekly from db.satnogs.org